Regional Weather Roundup
Issued by NWS Nashville, TN

Home | Current Version | Previous Version | Text Only | Print | Product List | Glossary On
Versions: 1 2 3 4 5 6 7 8 9 10 11 12 13 14 15 16 17 18 19 20 21 22 23 24 25 26 27
000
ASUS44 KOHX 290710
RWROHX
MIDDLE TENNESSEE HOURLY WEATHER ROUNDUP
NATIONAL WEATHER SERVICE NASHVILLE TN
200 AM CDT SUN MAY 29 2016

NOTE: "FAIR" INDICATES FEW OR NO CLOUDS BELOW 12,000 FEET WITH
NO SIGNIFICANT WEATHER AND/OR OBSTRUCTIONS TO VISIBILITY.

* THESE REPORTS ARE NOT UNDER NWS QUALITY CONTROL AND MAY NOT
  REPORT WEATHER SUCH AS PRECIPITATION AND FOG.


TNZ005>011-023>034-057-059-062>066-078-080-290800
...NORTHERN MIDDLE TENNESSEE...

CITY           SKY/WX    TMP DP  RH WIND       PRES   REMARKS
CLARKSVILLE    CLEAR     68  64  87 SE5       30.06F
CROSSVILLE     MOCLDY    65  61  87 CALM      30.17F
DICKSON        CLEAR     70  63  78 S3        30.08F
LEBANON        MOCLDY    65  63  93 CALM      30.09
NASHVILLE      MOCLDY    68  62  81 CALM      30.10F
SMYRNA         PTCLDY    66  66 100 CALM      30.11F
SPARTA         CLEAR     63  63 100 CALM      30.12S
$$
TNZ056-058-060-061-075>077-079-093>097-290800
...SOUTHERN MIDDLE TENNESSEE...

CITY           SKY/WX    TMP DP  RH WIND       PRES   REMARKS
COLUMBIA       CLEAR    N/A N/A N/A CALM      30.08F
FAYETTEVILLE   PTCLDY    64  64 100 CALM      30.11S
LEWISBURG      MOCLDY    62  61  97 CALM      30.10F
MCMINNVILLE    CLEAR     63  63 100 CALM      30.12F
SHELBYVILLE    CLEAR     66  66 100 E5        30.12S
TULLAHOMA      MOCLDY    63  63 100 CALM      30.13S VSB 1/4
WINCHESTER     CLEAR     64  61  88 CALM      30.12F
$$


...KEY TO REMARKS...
VSB - VISIBILITY IN MILES
WCI - WIND CHILL INDEX
HX  - HEAT INDEX





USA.gov is the U.S. government's official web portal to all federal, state and local government web resources and services.